Torna al catalogo

STARLINK-4699

AttivoComunicazioniVLEO
NORAD 53716·PAYLOAD·🇺🇸 United States

Lanciato Sep 5, 2022 da Cape Canaveral Space Force Station

Loading…

Prossimi Passaggi (prossime 24 ore)

TLE

AggiornatoSource: CelesTrak SupGP

Epoca: Sep 14, 2026, 20:34 UTC

1 53716C 22107S   26257.85743056 -.00013861  00000+0 -40959-3 0  2571
2 53716  53.1573 111.7704 0001253  86.5603 138.1298 15.34393417    11

Traccia STARLINK-4699 in tempo reale con AllMySat

Download on the App Store